Regional Weather Roundup
Issued by NWS

Home | Current Version | Previous Version | Text Only | Print | Product List | Glossary On
Versions: 1 2 3 4 5 6 7 8 9 10 11 12 13 14 15 16 17 18 19 20 21 22 23 24 25 26 27 28 29 30 31 32 33 34 35 36 37 38 39 40 41 42 43 44 45 46 47 48 49 50
357
ASUS44 KOUN 080510
RWROK

WEATHER ROUNDUP FOR OKLAHOMA
NATIONAL WEATHER SERVICE NORMAN OK
1100 PM CST SUN FEB 07 2016

NOTE: "FAIR" INDICATES FEW OR NO CLOUDS BELOW 12,000 FEET WITH NO
      SIGNIFICANT WEATHER AND/OR OBSTRUCTIONS TO VISIBILITY.

OKZ001>007-009>012-014-015-017-080600-
NORTHWEST OKLAHOMA AND THE PANHANDLE

CITY           SKY/WX    TMP DP  RH WIND       PRES   REMARKS
GAGE           CLOUDY    35  16  45 W8        30.34S WCI  29
GUYMON         CLEAR     29  14  53 W12       30.40S WCI  19
ENID/WOODRING  PTCLDY    43  19  39 NW21      30.25F
$$

OKZ016-021>023-033>039-044-045-080600-
SOUTHWEST OKLAHOMA

CITY           SKY/WX    TMP DP  RH WIND       PRES   REMARKS
LAWTON/REGL    CLEAR     47  13  25 NW10      30.33R
LAWTON/FT SILL CLEAR     46  16  29 N20G30    30.30R
FREDERICK      CLEAR     42  17  36 N10       30.33R
CLINTON        CLEAR     37  15  40 NW13      30.36R WCI  29
HOBART         PTCLDY    37  18  46 NW12      30.35R WCI  29
ALTUS AFB      CLEAR     41  15  34 NW10      30.35S
$$

OKZ018>020-024>031-080600-
CENTRAL OKLAHOMA

CITY           SKY/WX    TMP DP  RH WIND       PRES   REMARKS
OKLAHOMA CITY  MOCLDY    44  17  33 NW20      30.28R
OKC/WILEY POST CLOUDY    43  18  36 NW12      30.29R
OKC/TINKER AFB CLOUDY    45  17  32 NW16G26   30.25R
STILLWATER     CLEAR     42  19  39 NW10G22   30.23S
GUTHRIE        MOCLDY    44  17  33 NW13G21   30.27R
$$

OKZ008-013-054>072-080600-
NORTHEAST OKLAHOMA

CITY           SKY/WX    TMP DP  RH WIND       PRES   REMARKS
TULSA          MOCLDY    44  23  43 NW18      30.16S
TULSA/JONES    CLEAR     46  20  35 NW12G18   30.19R
PONCA CITY     CLEAR     38  21  50 NW13G18   30.22R WCI  30
BARTLESVILLE   CLEAR     42  20  41 NW9       30.19R
MUSKOGEE       PTCLDY    47  22  37 NW17      30.18R
$$

OKZ032-040>043-046>053-073>077-080600-
SOUTH CENTRAL/SOUTHEAST OKLAHOMA

CITY           SKY/WX    TMP DP  RH WIND       PRES   REMARKS
ARDMORE/DWNTWN PTCLDY    46  27  46 N3        30.29R
MCALESTER      MOCLDY    49  23  36 NW13      30.21R
$$





USA.gov is the U.S. government's official web portal to all federal, state and local government web resources and services.